User: anonymous   Login
Location: Albany
(35.0000°S, 118.0000°E)
Time: 03:23:04
(UTC-04:00)
Language:

Cosmos 1346 Rocket - Orbit

View from above orbital plane
View from above orbital plane
View from above satellite
View from above satellite

Ground track
Ground track

The orbit data is extracted from the following two-line orbital elements,

1 13121U 82027B   15087.80444661  .00003679  00000-0  24480-3 0  9997
2 13121 081.1678 330.4054 0027848 331.1467 028.8215 15.06607869794727
Epoch (UTC): 28 March 2015 19:18:24
Eccentricity: 0.0027848
inclination: 81.1678°
perigee height: 527 km
apogee height: 566 km
right ascension of ascending node: 330.4054°
argument of perigee: 331.1467°
revolutions per day: 15.06607869
mean anomaly at epoch: 28.8215°
orbit number at epoch: 79472

The dashed part of the orbit path shows where the satellite is in the earth's shadow,  

DLR